| time (UTC) | temp C | wind direction | speed KPH | gust KPH | rain 1hr cm | rain 24hr cm | rain mn cm | humidity % | barometer mb |
| 20260506044540 | 20 | 167 | 3.2 | 9.7 | 0.00 | 0.00 | 0.00 | 76 | 1015.4 |
| 20260506043043 | 20 | 156 | 6.4 | 11.3 | 0.00 | 0.00 | 0.00 | 76 | 1015.5 |
| 20260506041557 | 19 | 137 | 3.2 | 9.7 | 0.00 | 0.00 | 0.00 | 76 | 1015.6 |
| 20260506040052 | 19 | 172 | 1.6 | 6.4 | 0.00 | 0.00 | 0.00 | 76 | 1015.8 |
| 20260506034518 | 19 | 178 | 4.8 | 9.7 | 0.00 | 0.00 | 0.00 | 76 | 1015.7 |
| 20260506033028 | 20 | 179 | 3.2 | 8.0 | 0.00 | 0.00 | 0.00 | 76 | 1016.0 |
| 20260506031528 | 20 | 156 | 6.4 | 12.9 | 0.00 | 0.00 | 0.00 | 76 | 1015.7 |
| 20260506030033 | 20 | 183 | 3.2 | 9.7 | 0.00 | 0.00 | 0.00 | 76 | 1016.0 |
| 20260506024601 | 20 | 166 | 4.8 | 11.3 | 0.00 | 0.00 | 0.00 | 76 | 1016.0 |
| 20260506023000 | 20 | 182 | 4.8 | 9.7 | 0.00 | 0.00 | 0.00 | 76 | 1016.1 |
| 20260506021507 | 20 | 157 | 3.2 | 11.3 | 0.00 | 0.00 | 0.00 | 76 | 1016.1 |
| 20260506020013 | 20 | 192 | 4.8 | 12.9 | 0.00 | 0.00 | 0.00 | 76 | 1016.0 |
| 20260506014547 | 20 | 146 | 4.8 | 12.9 | 0.00 | 0.00 | 0.00 | 76 | 1015.8 |
| 20260506013044 | 20 | 146 | 4.8 | 11.3 | 0.00 | 0.00 | 0.00 | 76 | 1015.8 |
| 20260506011548 | 20 | 198 | 4.8 | 12.9 | 0.00 | 0.00 | 0.00 | 75 | 1015.5 |
| 20260506010052 | 20 | 157 | 6.4 | 12.9 | 0.00 | 0.00 | 0.00 | 75 | 1015.6 |
| 20260506004533 | 20 | 153 | 6.4 | 14.5 | 0.00 | 0.00 | 0.00 | 75 | 1015.4 |
| 20260506003023 | 20 | 158 | 6.4 | 12.9 | 0.00 | 0.00 | 0.00 | 74 | 1015.3 |
| 20260506001527 | 20 | 211 | 6.4 | 12.9 | 0.00 | 0.00 | 0.00 | 74 | 1015.4 |
| 20260506000040 | 20 | 171 | 3.2 | 14.5 | 0.00 | 0.00 | 0.00 | 74 | 1015.4 |
| 20260505234604 | 20 | 209 | 4.8 | 14.5 | 0.00 | 0.00 | 0.00 | 73 | 1015.5 |
| 20260505233003 | 21 | 169 | 8.0 | 14.5 | 0.00 | 0.00 | 0.00 | 71 | 1015.5 |
| 20260505231507 | 21 | 187 | 6.4 | 17.7 | 0.00 | 0.00 | 0.00 | 71 | 1015.5 |
| 20260505230015 | 21 | 196 | 6.4 | 17.7 | 0.00 | 0.00 | 0.00 | 70 | 1015.7 |
| 20260505224543 | 21 | 204 | 6.4 | 17.7 | 0.00 | 0.00 | 0.00 | 70 | 1015.4 |
| 20260505223054 | 22 | 178 | 8.0 | 22.5 | 0.00 | 0.00 | 0.00 | 69 | 1015.5 |
| 20260505221553 | 22 | 216 | 9.7 | 19.3 | 0.00 | 0.00 | 0.00 | 69 | 1015.6 |
| 20260505220055 | 22 | 159 | 6.4 | 20.9 | 0.00 | 0.00 | 0.00 | 68 | 1015.6 |
| 20260505214537 | 22 | 163 | 11.3 | 19.3 | 0.00 | 0.00 | 0.00 | 68 | 1015.4 |
| 20260505213040 | 22 | 163 | 11.3 | 20.9 | 0.00 | 0.00 | 0.00 | 70 | 1015.3 |
| 20260505211530 | 22 | 191 | 11.3 | 22.5 | 0.00 | 0.00 | 0.00 | 69 | 1015.3 |
| 20260505210033 | 22 | 202 | 12.9 | 22.5 | 0.00 | 0.00 | 0.00 | 67 | 1015.4 |
| 20260505204603 | 22 | 186 | 11.3 | 20.9 | 0.00 | 0.00 | 0.00 | 69 | 1015.5 |
| 20260505203004 | 22 | 157 | 14.5 | 24.1 | 0.00 | 0.00 | 0.00 | 67 | 1015.6 |
| 20260505201506 | 22 | 171 | 11.3 | 22.5 | 0.00 | 0.00 | 0.00 | 67 | 1015.7 |
| 20260505200011 | 22 | 154 | 11.3 | 24.1 | 0.00 | 0.00 | 0.00 | 67 | 1015.8 |
| 20260505194543 | 22 | 175 | 12.9 | 20.9 | 0.00 | 0.00 | 0.00 | 68 | 1016.1 |
| 20260505193050 | 22 | 174 | 11.3 | 20.9 | 0.00 | 0.00 | 0.00 | 69 | 1016.4 |
| 20260505191556 | 22 | 126 | 12.9 | 20.9 | 0.00 | 0.00 | 0.00 | 67 | 1016.6 |
| 20260505190111 | 22 | 183 | 8.0 | 17.7 | 0.00 | 0.00 | 0.00 | 68 | 1016.6 |
| 20260505184524 | 22 | 190 | 9.7 | 17.7 | 0.00 | 0.00 | 0.00 | 68 | 1016.6 |
| 20260505183041 | 22 | 190 | 11.3 | 20.9 | 0.00 | 0.00 | 0.00 | 66 | 1016.6 |
| 20260505181529 | 22 | 155 | 8.0 | 16.1 | 0.00 | 0.00 | 0.00 | 68 | 1016.8 |
| 20260505180038 | 22 | 184 | 9.7 | 14.5 | 0.00 | 0.00 | 0.00 | 65 | 1016.8 |
| 20260505174606 | 22 | 142 | 8.0 | 16.1 | 0.00 | 0.00 | 0.00 | 66 | 1016.8 |
| 20260505173003 | 22 | 184 | 9.7 | 17.7 | 0.00 | 0.00 | 0.00 | 64 | 1016.8 |
| 20260505171522 | 23 | 173 | 8.0 | 14.5 | 0.00 | 0.00 | 0.00 | 65 | 1016.7 |
| 20260505170014 | 22 | 132 | 9.7 | 17.7 | 0.00 | 0.00 | 0.00 | 65 | 1016.8 |
| 20260505164540 | 23 | 202 | 6.4 | 16.1 | 0.00 | 0.00 | 0.00 | 63 | 1016.8 |
| 20260505163044 | 23 | 194 | 8.0 | 14.5 | 0.00 | 0.00 | 0.00 | 62 | 1017.0 |
| 20260505161549 | 22 | 247 | 8.0 | 19.3 | 0.00 | 0.00 | 0.00 | 63 | 1017.2 |
| 20260505153028 | 22 | 202 | 6.4 | 16.1 | 0.00 | 0.00 | 0.00 | 64 | 1017.3 |
| 20260505151527 | 22 | 192 | 6.4 | 17.7 | 0.00 | 0.00 | 0.00 | 63 | 1017.3 |
| 20260505124515 | 20 | 185 | 6.4 | 14.5 | 0.00 | 0.00 | 0.00 | 70 | 1016.9 |
| 20260505123021 | 20 | 182 | 4.8 | 9.7 | 0.00 | 0.00 | 0.00 | 72 | 1016.9 |
| 20260505121524 | 19 | 173 | 3.2 | 9.7 | 0.00 | 0.00 | 0.00 | 75 | 1016.8 |
| 20260505120036 | 18 | 197 | 4.8 | 8.0 | 0.00 | 0.00 | 0.00 | 74 | 1016.8 |
| 20260505114601 | 18 | 216 | 0.0 | 0.0 | 0.00 | 0.00 | 0.00 | 71 | 1016.8 |
| 20260505113059 | 16 | 216 | 0.0 | 0.0 | 0.00 | 0.00 | 0.00 | 73 | 1016.6 |
| 20260505111604 | 15 | 215 | 0.0 | 1.6 | 0.00 | 0.00 | 0.00 | 74 | 1016.5 |
| 20260505101546 | 13 | 215 | 0.0 | 0.0 | 0.00 | 0.00 | 0.00 | 76 | 1015.7 |
| 20260505100046 | 13 | 215 | 0.0 | 1.6 | 0.00 | 0.00 | 0.00 | 76 | 1015.5 |
| 20260505094512 | 13 | 216 | 0.0 | 1.6 | 0.00 | 0.00 | 0.00 | 76 | 1015.3 |
| 20260505093017 | 14 | 215 | 0.0 | 0.0 | 0.00 | 0.00 | 0.00 | 76 | 1015.3 |
| 20260505091529 | 15 | 215 | 0.0 | 0.0 | 0.00 | 0.00 | 0.00 | 76 | 1015.3 |
| 20260505090041 | 15 | 216 | 0.0 | 1.6 | 0.00 | 0.00 | 0.00 | 77 | 1015.3 |
| 20260505084558 | 15 | 215 | 0.0 | 0.0 | 0.00 | 0.00 | 0.00 | 77 | 1015.1 |
| 20260505083109 | 16 | 215 | 0.0 | 1.6 | 0.00 | 0.00 | 0.00 | 77 | 1015.2 |
| 20260505081610 | 17 | 215 | 0.0 | 1.6 | 0.00 | 0.00 | 0.00 | 77 | 1015.1 |
| 20260505080004 | 17 | 225 | 0.0 | 3.2 | 0.00 | 0.00 | 0.00 | 76 | 1015.0 |
| 20260505074534 | 18 | 197 | 1.6 | 6.4 | 0.00 | 0.00 | 0.00 | 76 | 1014.9 |
| 20260505073051 | 18 | 228 | 3.2 | 9.7 | 0.00 | 0.00 | 0.00 | 75 | 1014.9 |
| 20260505071543 | 18 | 216 | 4.8 | 11.3 | 0.00 | 0.00 | 0.00 | 75 | 1014.8 |
| 20260505070053 | 18 | 211 | 3.2 | 11.3 | 0.00 | 0.00 | 0.00 | 75 | 1015.0 |
| 20260505064513 | 18 | 211 | 4.8 | 11.3 | 0.00 | 0.00 | 0.00 | 75 | 1015.0 |
| 20260505063017 | 18 | 197 | 4.8 | 11.3 | 0.00 | 0.00 | 0.00 | 74 | 1014.8 |
| 20260505061522 | 18 | 178 | 4.8 | 12.9 | 0.00 | 0.00 | 0.00 | 74 | 1015.1 |
| 20260505060027 | 18 | 194 | 6.4 | 16.1 | 0.00 | 0.00 | 0.00 | 74 | 1015.2 |